Regional Weather Roundup
Issued by NWS

Current Version | Previous Version | Text Only | Print | Product List | Glossary On
Versions: 1 2 3 4 5 6 7 8 9 10 11 12 13 14 15 16 17 18 19 20 21 22 23 24 25 26 27 28 29 30 31 32 33 34 35 36 37 38 39 40 41 42 43 44 45 46 47 48 49 50
000
ASUS46 KSEW 261510
RWRWA

WASHINGTON REGIONAL WEATHER ROUNDUP
NATIONAL WEATHER SERVICE SEATTLE WA
800 AM PDT SUN MAR 26 2017

NOTE:"FAIR" INDICATES FEW OR NO CLOUDS BELOW 12,000 FEET WITH NO
SIGNIFICANT WEATHER AND/OR OBSTRUCTIONS TO VISIBILITY.

WAZ507-509-555>559-261600-
SEATTLE, TACOMA, EVERETT, AND VICINITY

CITY           SKY/WX    TMP DP  RH WIND       PRES   REMARKS
EVERETT        CLOUDY    43  37  79 VRB6      29.84F
BOEING FIELD   LGT RAIN  45  42  89 SE3       29.86S
RENTON         LGT RAIN  44  41  89 SE3       29.86S
SEATAC AIRPORT LGT RAIN  45  38  76 SE7       29.85S
JBLM-MCCHORD   MIX PCPN  43  43 100 CALM      29.84F
PUYALLUP         N/A     43  43 100 CALM      29.85S
BREMERTON      CLOUDY    39  37  93 CALM      29.87F
JBLM-FT LEWIS  LGT RAIN  41  41 100 CALM      29.84F
TACOMA NARROWS LGT RAIN  42  41  96 CALM      29.85F
$$

WAZ001-503-506-510-514-515-261600-
NORTH INTERIOR

CITY           SKY/WX    TMP DP  RH WIND       PRES   REMARKS
BELLINGHAM     CLOUDY    42  38  85 NE5       29.83F
FRIDAY HARBOR  LGT RAIN  47  39  74 SE8       29.82F
EASTSOUND      CLOUDY    46  37  71 S5        29.80F
PORT ANGELES   CLOUDY    39  38  96 SW3       29.79F
EDIZ HOOK      CLOUDY    43  38  82 CALM      29.79F
PORT TOWNSEND  CLOUDY    43  39  87 SE9       29.82F
NAS WHIDBEY    CLOUDY    48  36  63 SE13G22   29.86S
ARLINGTON      CLOUDY    41  34  75 CALM      29.87S
BURLINGTON     CLOUDY    43  39  87 NE6       29.84F
$$

WAZ020-022-039-040-504-511-512-261600-
SOUTHWEST INTERIOR

CITY           SKY/WX    TMP DP  RH WIND       PRES   REMARKS
SHELTON        LGT RAIN  41  39  93 N5        29.82F FOG
OLYMPIA        LGT RAIN  42  42 100 CALM      29.84F FOG
CHEHALIS       LGT RAIN  45  43  93 S6        29.84F
KELSO          LGT RAIN  46  41  82 SE12G24   29.86F
VANCOUVER      LGT RAIN  46  43  89 SE9       29.89F
SCAPPOOSE, OR  LGT RAIN  45  41  86 S10       29.87F
PORTLAND, OR   LGT RAIN  45  41  86 S12       29.89F
$$

WAZ021-516-517-261600-
WASHINGTON COAST

CITY           SKY/WX    TMP DP  RH WIND       PRES   REMARKS
FORKS          LGT RAIN  41  39  93 SE9       29.74F
HOQUIAM        LGT RAIN  43  42  97 E13       29.79F FOG
ASTORIA, OR    LGT RAIN  43  40  89 E6        29.79F
$$

WAZ019-023-024-040-567>569-261600-
CASCADE MOUNTAINS AND COLUMBIA GORGE

CITY           SKY/WX    TMP DP  RH WIND       PRES   REMARKS
STAMPEDE PASS  NOT AVBL
TROUTDALE, OR  LGT RAIN  46  42  86 SE5       29.90F FOG
THE DALLES, OR CLOUDY    43  40  89 CALM      29.92S
$$

WAZ026-027-041>044-520-521-261600-
EAST SLOPES

CITY           SKY/WX    TMP DP  RH WIND       PRES   REMARKS
OMAK           PTSUNNY   38  27  64 N5        29.92S
WENATCHEE      CLOUDY    37  32  82 CALM      29.89S
ELLENSBURG     CLOUDY    36  32  85 CALM      29.87S
YAKIMA         CLOUDY    40  34  79 CALM      29.90S
SUNNYSIDE ARPT CLOUDY    38  36  91 CALM      29.89S
$$

WAZ028-034-035-261600-
COLUMBIA BASIN

CITY           SKY/WX    TMP DP  RH WIND       PRES   REMARKS
EPHRATA        CLOUDY    37  30  75 N7        29.90S
MOSES LAKE     PTSUNNY   36  32  85 N7        29.90S
PASCO          CLOUDY    42  37  82 CALM      29.91S
HERMISTON, OR  CLOUDY    40  38  93 CALM      29.88F
$$

WAZ036>038-261600-
NORTHEAST WASHINGTON

CITY           SKY/WX    TMP DP  RH WIND       PRES   REMARKS
SPOKANE GEIGER MOSUNNY   35  31  85 NE5       29.91F
SPOKANE FELTS  SUNNY     36  33  89 NE3       29.93F
FAIRCHILD AFB  SUNNY     34  34 100 E5        29.89F
COEURDALENE,ID MOSUNNY   33  31  92 NE5       29.94F
DEER PARK      PTSUNNY   35  31  85 NE5       29.93F
$$

WAZ029>033-261600-
SOUTHEAST WASHINGTON

CITY           SKY/WX    TMP DP  RH WIND       PRES   REMARKS
PULLMAN        PTSUNNY   38  32  79 E16       29.90F
LEWISTON, ID   PTSUNNY   40  35  83 E5        29.93F
WALLA WALLA    PTSUNNY   44  37  76 E7        29.87F
PENDLETON, OR  CLOUDY    39  37  92 E5        29.86F
$$



USA.gov is the U.S. government's official web portal to all federal, state and local government web resources and services.